Time,TemperatureF,DewpointF,PressureIn,WindDirection,WindDirectionDegrees,WindSpeedMPH,WindSpeedGustMPH,Humidity,HourlyPrecipIn,Conditions,Clouds,dailyrainin,SoftwareType,DateUTC
2013-03-23 00:00:00,32.8,24.8,29.80,West,273,0.0,0.0,72,0.00,CLR,,0.00,WeatherDisplay:10.37,2013-03-23 04:00:00,
2013-03-23 00:05:00,32.8,24.8,29.80,West,273,3.5,3.5,72,0.00,CLR,,0.00,WeatherDisplay:10.37,2013-03-23 04:05:00,
2013-03-23 00:11:00,32.9,24.9,29.80,West,268,3.5,3.5,72,0.00,CLR,,0.00,WeatherDisplay:10.37,2013-03-23 04:11:00,
2013-03-23 00:16:00,32.9,24.9,29.80,West,268,2.0,2.0,72,0.00,CLR,,0.00,WeatherDisplay:10.37,2013-03-23 04:16:00,
2013-03-23 00:22:00,33.0,24.6,29.80,West,260,3.5,3.5,71,0.00,CLR,,0.00,WeatherDisplay:10.37,2013-03-23 04:22:00,
2013-03-23 00:28:00,33.3,24.6,29.80,WSW,250,2.3,2.3,70,0.00,CLR,,0.00,WeatherDisplay:10.37,2013-03-23 04:28:00,
2013-03-23 00:33:00,33.5,24.4,29.80,WSW,250,5.0,5.0,69,0.00,CLR,,0.00,WeatherDisplay:10.37,2013-03-23 04:33:00,
2013-03-23 00:38:00,33.7,24.3,29.80,SW,236,5.8,5.8,68,0.00,CLR,,0.00,WeatherDisplay:10.37,2013-03-23 04:38:00,
2013-03-23 00:43:00,33.8,24.4,29.80,WSW,250,5.8,5.8,68,0.00,CLR,,0.00,WeatherDisplay:10.37,2013-03-23 04:43:00,
2013-03-23 00:48:00,33.9,24.4,29.80,SW,234,4.6,4.6,68,0.00,CLR,,0.00,WeatherDisplay:10.37,2013-03-23 04:48:00,
2013-03-23 00:54:00,33.8,24.4,29.80,WSW,242,1.1,1.1,68,0.00,CLR,,0.00,WeatherDisplay:10.37,2013-03-23 04:54:00,
2013-03-23 00:59:00,33.9,24.4,29.81,West,265,5.0,5.0,68,0.00,CLR,,0.00,WeatherDisplay:10.37,2013-03-23 04:59:00,
2013-03-23 01:04:00,33.9,24.4,29.81,West,265,2.3,2.3,68,0.00,CLR,,0.00,WeatherDisplay:10.37,2013-03-23 05:04:00,
2013-03-23 01:09:00,33.8,24.4,29.81,West,265,1.1,0.0,68,0.00,CLR,,0.00,WeatherDisplay:10.37,2013-03-23 05:09:00,
2013-03-23 01:14:00,33.8,24.4,29.81,West,265,0.0,0.0,68,0.00,CLR,,0.00,WeatherDisplay:10.37,2013-03-23 05:14:00,
2013-03-23 01:19:00,33.7,24.6,29.81,West,265,3.5,3.5,69,0.00,CLR,,0.00,WeatherDisplay:10.37,2013-03-23 05:19:00,
2013-03-23 01:25:00,33.6,24.5,29.80,West,265,2.3,2.3,69,0.00,CLR,,0.00,WeatherDisplay:10.37,2013-03-23 05:25:00,
2013-03-23 01:30:00,33.5,24.4,29.80,West,265,1.1,1.1,69,0.00,CLR,,0.00,WeatherDisplay:10.37,2013-03-23 05:30:00,
2013-03-23 01:35:00,33.4,24.3,29.81,West,265,2.3,2.3,69,0.00,CLR,,0.00,WeatherDisplay:10.37,2013-03-23 05:35:00,
2013-03-23 01:40:00,33.3,24.2,29.80,West,265,2.3,2.3,69,0.00,CLR,,0.00,WeatherDisplay:10.37,2013-03-23 05:40:00,
2013-03-23 01:45:00,33.2,24.5,29.81,West,265,5.8,5.8,70,0.00,CLR,,0.00,WeatherDisplay:10.37,2013-03-23 05:45:00,
2013-03-23 01:51:00,33.2,24.5,29.80,West,272,3.5,3.5,70,0.00,CLR,,0.00,WeatherDisplay:10.37,2013-03-23 05:51:00,
2013-03-23 01:56:00,33.4,24.7,29.80,WSW,257,6.0,6.0,70,0.00,CLR,,0.00,WeatherDisplay:10.37,2013-03-23 05:56:00,
2013-03-23 02:02:00,33.4,24.7,29.80,West,261,4.6,4.6,70,0.00,CLR,,0.00,WeatherDisplay:10.37,2013-03-23 06:02:00,
2013-03-23 02:07:00,33.5,24.8,29.80,West,260,5.8,5.8,70,0.00,CLR,,0.00,WeatherDisplay:10.37,2013-03-23 06:07:00,
2013-03-23 02:12:00,33.7,25.0,29.80,WSW,254,5.8,5.8,70,0.00,CLR,,0.00,WeatherDisplay:10.37,2013-03-23 06:12:00,
2013-03-23 02:18:00,33.7,25.0,29.80,West,269,5.8,5.8,70,0.00,CLR,,0.00,WeatherDisplay:10.37,2013-03-23 06:18:00,
2013-03-23 02:23:00,33.7,25.0,29.80,West,269,5.8,5.8,70,0.00,CLR,,0.00,WeatherDisplay:10.37,2013-03-23 06:23:00,
2013-03-23 02:28:00,33.7,25.0,29.80,West,264,5.8,5.8,70,0.00,CLR,,0.00,WeatherDisplay:10.37,2013-03-23 06:28:00,
2013-03-23 02:33:00,33.7,25.0,29.80,WSW,241,5.8,5.8,70,0.00,CLR,,0.00,WeatherDisplay:10.37,2013-03-23 06:33:00,
2013-03-23 02:38:00,33.6,24.9,29.80,WSW,254,7.0,7.0,70,0.00,CLR,,0.00,WeatherDisplay:10.37,2013-03-23 06:38:00,
2013-03-23 02:43:00,33.6,24.9,29.80,WSW,253,6.9,6.9,70,0.00,CLR,,0.00,WeatherDisplay:10.37,2013-03-23 06:43:00,
2013-03-23 02:48:00,33.5,24.8,29.80,WSW,248,3.5,3.5,70,0.00,CLR,,0.00,WeatherDisplay:10.37,2013-03-23 06:48:00,
2013-03-23 02:53:00,33.5,24.8,29.80,WSW,248,3.5,3.5,70,0.00,CLR,,0.00,WeatherDisplay:10.37,2013-03-23 06:53:00,
2013-03-23 02:59:00,33.5,25.1,29.80,WSW,253,1.1,1.1,71,0.00,CLR,,0.00,WeatherDisplay:10.37,2013-03-23 06:59:00,
2013-03-23 03:04:00,33.5,25.1,29.80,WSW,253,1.1,1.1,71,0.00,CLR,,0.00,WeatherDisplay:10.37,2013-03-23 07:04:00,
2013-03-23 03:09:00,33.4,25.0,29.79,WSW,253,0.0,0.0,71,0.00,CLR,,0.00,WeatherDisplay:10.37,2013-03-23 07:09:00,
2013-03-23 03:14:00,33.3,24.9,29.80,WSW,253,0.0,0.0,71,0.00,CLR,,0.00,WeatherDisplay:10.37,2013-03-23 07:14:00,
2013-03-23 03:19:00,33.3,24.9,29.79,WSW,253,0.0,0.0,71,0.00,CLR,,0.00,WeatherDisplay:10.37,2013-03-23 07:19:00,
2013-03-23 03:25:00,33.3,25.2,29.79,WSW,253,0.0,0.0,72,0.00,CLR,,0.00,WeatherDisplay:10.37,2013-03-23 07:25:00,
2013-03-23 03:30:00,33.2,25.1,29.79,WSW,253,0.0,0.0,72,0.00,CLR,,0.00,WeatherDisplay:10.37,2013-03-23 07:30:00,
2013-03-23 03:35:00,33.1,25.4,29.79,WSW,253,0.0,0.0,73,0.00,CLR,,0.00,WeatherDisplay:10.37,2013-03-23 07:35:00,
2013-03-23 03:40:00,33.0,25.0,29.79,WSW,253,0.0,0.0,72,0.00,CLR,,0.00,WeatherDisplay:10.37,2013-03-23 07:40:00,
2013-03-23 03:45:00,32.8,24.8,29.78,WSW,253,0.0,0.0,72,0.00,CLR,,0.00,WeatherDisplay:10.37,2013-03-23 07:45:00,
2013-03-23 03:50:00,32.6,24.6,29.78,WSW,253,1.1,0.0,72,0.00,CLR,,0.00,WeatherDisplay:10.37,2013-03-23 07:50:00,
2013-03-23 03:55:00,32.3,24.6,29.78,WSW,253,2.3,2.3,73,0.00,CLR,,0.00,WeatherDisplay:10.37,2013-03-23 07:55:00,
2013-03-23 04:00:00,32.1,24.4,29.78,WSW,253,1.1,0.0,73,0.00,CLR,,0.00,WeatherDisplay:10.37,2013-03-23 08:00:00,
2013-03-23 04:06:00,32.0,24.6,29.78,WSW,253,0.0,0.0,74,0.00,CLR,,0.00,WeatherDisplay:10.37,2013-03-23 08:06:00,
2013-03-23 04:11:00,31.9,24.6,29.78,WSW,253,2.3,2.3,74,0.00,CLR,,0.00,WeatherDisplay:10.37,2013-03-23 08:11:00,
2013-03-23 04:16:00,31.8,24.5,29.78,WSW,253,0.0,0.0,74,0.00,CLR,,0.00,WeatherDisplay:10.37,2013-03-23 08:16:00,
2013-03-23 04:21:00,31.8,24.8,29.78,WSW,253,1.1,0.0,75,0.00,CLR,,0.00,WeatherDisplay:10.37,2013-03-23 08:21:00,
2013-03-23 04:26:00,31.7,24.7,29.78,WSW,253,0.0,0.0,75,0.00,CLR,,0.00,WeatherDisplay:10.37,2013-03-23 08:26:00,
2013-03-23 04:32:00,31.7,24.7,29.78,WSW,253,0.0,0.0,75,0.00,CLR,,0.00,WeatherDisplay:10.37,2013-03-23 08:32:00,
2013-03-23 04:37:00,31.7,24.4,29.77,WSW,253,0.0,0.0,74,0.00,CLR,,0.00,WeatherDisplay:10.37,2013-03-23 08:37:00,
2013-03-23 04:42:00,31.7,24.4,29.77,WSW,253,2.3,2.3,74,0.00,CLR,,0.00,WeatherDisplay:10.37,2013-03-23 08:42:00,
2013-03-23 04:47:00,31.8,24.5,29.78,WSW,253,2.0,2.0,74,0.00,CLR,,0.00,WeatherDisplay:10.37,2013-03-23 08:47:00,
2013-03-23 04:52:00,31.8,24.1,29.77,WSW,253,0.0,0.0,73,0.00,CLR,,0.00,WeatherDisplay:10.37,2013-03-23 08:52:00,
2013-03-23 04:57:00,31.9,24.6,29.78,WSW,253,3.5,3.5,74,0.00,CLR,,0.00,WeatherDisplay:10.37,2013-03-23 08:57:00,
2013-03-23 05:03:00,31.9,24.2,29.78,WSW,253,2.3,2.3,73,0.00,FEW,,0.00,WeatherDisplay:10.37,2013-03-23 09:03:00,
2013-03-23 05:08:00,31.8,24.5,29.78,WSW,253,2.3,2.3,74,0.00,FEW,,0.00,WeatherDisplay:10.37,2013-03-23 09:08:00,
2013-03-23 05:13:00,31.7,24.4,29.78,WSW,253,3.5,3.5,74,0.00,FEW,,0.00,WeatherDisplay:10.37,2013-03-23 09:13:00,
2013-03-23 05:18:00,31.5,24.2,29.78,WSW,253,3.5,3.5,74,0.00,FEW,,0.00,WeatherDisplay:10.37,2013-03-23 09:18:00,
2013-03-23 05:23:00,31.5,24.2,29.78,SW,236,6.9,6.9,74,0.00,FEW,,0.00,WeatherDisplay:10.37,2013-03-23 09:23:00,
2013-03-23 05:28:00,31.7,24.4,29.78,WSW,252,4.6,4.6,74,0.00,FEW,,0.00,WeatherDisplay:10.37,2013-03-23 09:28:00,
2013-03-23 05:33:00,31.9,24.2,29.78,SW,220,5.8,5.8,73,0.00,FEW,,0.00,WeatherDisplay:10.37,2013-03-23 09:33:00,
2013-03-23 05:38:00,32.1,24.4,29.78,SW,231,5.8,5.8,73,0.00,FEW,,0.00,WeatherDisplay:10.37,2013-03-23 09:38:00,
2013-03-23 05:44:00,32.1,24.4,29.78,SW,230,6.0,6.0,73,0.00,FEW,,0.00,WeatherDisplay:10.37,2013-03-23 09:44:00,
2013-03-23 05:49:00,32.2,24.2,29.78,SW,222,5.8,5.8,72,0.00,FEW,,0.00,WeatherDisplay:10.37,2013-03-23 09:49:00,
2013-03-23 05:54:00,32.3,24.3,29.78,WSW,257,10.4,10.4,72,0.00,FEW,,0.00,WeatherDisplay:10.37,2013-03-23 09:54:00,
2013-03-23 05:59:00,32.4,24.4,29.79,WSW,253,6.9,6.9,72,0.00,FEW,,0.00,WeatherDisplay:10.37,2013-03-23 09:59:00,
2013-03-23 06:05:00,32.7,24.3,29.78,WSW,246,6.9,6.9,71,0.00,CLR,,0.00,WeatherDisplay:10.37,2013-03-23 10:05:00,
2013-03-23 06:10:00,32.9,24.5,29.79,West,271,11.5,11.5,71,0.00,CLR,,0.00,WeatherDisplay:10.37,2013-03-23 10:10:00,
2013-03-23 06:15:00,33.2,24.8,29.79,SW,219,10.4,10.4,71,0.00,CLR,,0.00,WeatherDisplay:10.37,2013-03-23 10:15:00,
2013-03-23 06:20:00,33.4,24.7,29.79,WSW,246,10.0,10.0,70,0.00,CLR,,0.00,WeatherDisplay:10.37,2013-03-23 10:20:00,
2013-03-23 06:25:00,33.3,24.6,29.79,SW,218,10.4,10.4,70,0.00,CLR,,0.00,WeatherDisplay:10.37,2013-03-23 10:25:00,
2013-03-23 06:30:00,33.2,24.5,29.79,SW,215,6.9,6.9,70,0.00,CLR,,0.00,WeatherDisplay:10.37,2013-03-23 10:30:00,
2013-03-23 06:36:00,33.1,24.4,29.79,SW,232,5.8,5.8,70,0.00,CLR,,0.00,WeatherDisplay:10.37,2013-03-23 10:36:00,
2013-03-23 06:41:00,33.0,24.3,29.79,West,259,3.5,3.5,70,0.00,CLR,,0.00,WeatherDisplay:10.37,2013-03-23 10:41:00,
2013-03-23 06:46:00,33.0,24.3,29.79,WSW,237,4.6,4.6,70,0.00,CLR,,0.00,WeatherDisplay:10.37,2013-03-23 10:46:00,
2013-03-23 06:51:00,33.0,24.3,29.80,WSW,255,3.5,3.5,70,0.00,CLR,,0.00,WeatherDisplay:10.37,2013-03-23 10:51:00,
2013-03-23 06:56:00,32.9,24.2,29.80,West,267,3.5,3.5,70,0.00,CLR,,0.00,WeatherDisplay:10.37,2013-03-23 10:56:00,
2013-03-23 07:01:00,32.9,24.5,29.80,SW,230,3.5,3.5,71,0.00,CLR,,0.00,WeatherDisplay:10.37,2013-03-23 11:01:00,
2013-03-23 07:07:00,32.9,24.5,29.80,SW,230,0.0,0.0,71,0.00,CLR,,0.00,WeatherDisplay:10.37,2013-03-23 11:07:00,
2013-03-23 07:12:00,33.0,24.6,29.80,SW,230,2.3,2.3,71,0.00,CLR,,0.00,WeatherDisplay:10.37,2013-03-23 11:12:00,
2013-03-23 07:17:00,33.2,24.5,29.80,SW,230,2.3,2.3,70,0.00,CLR,,0.00,WeatherDisplay:10.37,2013-03-23 11:17:00,
2013-03-23 07:22:00,33.4,25.0,29.80,SW,230,1.1,0.0,71,0.00,CLR,,0.00,WeatherDisplay:10.37,2013-03-23 11:22:00,
2013-03-23 07:27:00,33.8,25.0,29.80,SW,230,0.0,0.0,70,0.00,CLR,,0.00,WeatherDisplay:10.37,2013-03-23 11:27:00,
2013-03-23 07:32:00,34.0,25.2,29.80,SW,230,0.0,0.0,70,0.00,CLR,,0.00,WeatherDisplay:10.37,2013-03-23 11:32:00,
2013-03-23 07:38:00,34.3,25.2,29.80,SW,230,0.0,0.0,69,0.00,CLR,,0.00,WeatherDisplay:10.37,2013-03-23 11:38:00,
2013-03-23 07:43:00,34.6,25.1,29.80,SW,230,0.0,0.0,68,0.00,CLR,,0.00,WeatherDisplay:10.37,2013-03-23 11:43:00,
2013-03-23 07:48:00,34.8,25.0,29.80,SW,230,1.1,1.1,67,0.00,CLR,,0.00,WeatherDisplay:10.37,2013-03-23 11:48:00,
2013-03-23 07:53:00,34.9,25.0,29.80,SW,230,0.0,0.0,67,0.00,CLR,,0.00,WeatherDisplay:10.37,2013-03-23 11:53:00,
2013-03-23 07:58:00,35.0,25.1,29.80,SW,230,0.0,0.0,67,0.00,CLR,,0.00,WeatherDisplay:10.37,2013-03-23 11:58:00,
2013-03-23 08:03:00,35.1,25.2,29.80,SW,230,0.0,0.0,67,0.00,CLR,,0.00,WeatherDisplay:10.37,2013-03-23 12:03:00,
2013-03-23 08:09:00,35.1,25.2,29.80,SW,230,2.0,2.0,67,0.00,CLR,,0.00,WeatherDisplay:10.37,2013-03-23 12:09:00,
2013-03-23 08:14:00,35.0,25.1,29.80,SW,230,2.0,2.0,67,0.00,CLR,,0.00,WeatherDisplay:10.37,2013-03-23 12:14:00,
2013-03-23 08:19:00,35.0,25.1,29.80,SW,230,3.5,3.5,67,0.00,CLR,,0.00,WeatherDisplay:10.37,2013-03-23 12:19:00,
2013-03-23 08:24:00,35.1,25.2,29.80,SW,230,3.5,3.5,67,0.00,CLR,,0.00,WeatherDisplay:10.37,2013-03-23 12:24:00,
2013-03-23 08:29:00,35.2,25.7,29.79,South,178,2.3,2.3,68,0.00,CLR,,0.00,WeatherDisplay:10.37,2013-03-23 12:29:00,
2013-03-23 08:35:00,35.3,25.4,29.79,SSW,202,4.6,4.6,67,0.00,CLR,,0.00,WeatherDisplay:10.37,2013-03-23 12:35:00,
2013-03-23 08:40:00,35.5,25.3,29.79,WNW,289,5.8,5.8,66,0.00,CLR,,0.00,WeatherDisplay:10.37,2013-03-23 12:40:00,
2013-03-23 08:45:00,35.9,25.3,29.79,West,268,8.1,8.1,65,0.00,CLR,,0.00,WeatherDisplay:10.37,2013-03-23 12:45:00,
2013-03-23 08:50:00,36.5,25.1,29.78,West,271,11.5,11.5,63,0.00,CLR,,0.00,WeatherDisplay:10.37,2013-03-23 12:50:00,
2013-03-23 08:55:00,36.9,25.5,29.78,WNW,300,8.1,8.1,63,0.00,CLR,,0.00,WeatherDisplay:10.37,2013-03-23 12:55:00,
2013-03-23 09:01:00,37.3,25.5,29.78,WNW,283,8.1,8.1,62,0.00,CLR,,0.00,WeatherDisplay:10.37,2013-03-23 13:01:00,
2013-03-23 09:06:00,37.6,25.4,29.78,NW,310,8.1,8.1,61,0.00,CLR,,0.00,WeatherDisplay:10.37,2013-03-23 13:06:00,
2013-03-23 09:12:00,37.8,25.1,29.78,West,270,11.5,11.5,60,0.00,CLR,,0.00,WeatherDisplay:10.37,2013-03-23 13:12:00,
2013-03-23 09:17:00,38.0,24.9,29.77,West,281,10.4,10.4,59,0.00,CLR,,0.00,WeatherDisplay:10.37,2013-03-23 13:17:00,
2013-03-23 09:22:00,38.3,25.6,29.77,West,277,8.1,8.1,60,0.00,CLR,,0.00,WeatherDisplay:10.37,2013-03-23 13:22:00,
2013-03-23 09:27:00,38.6,25.5,29.76,WSW,252,10.4,10.4,59,0.00,CLR,,0.00,WeatherDisplay:10.37,2013-03-23 13:27:00,
2013-03-23 09:32:00,38.7,24.8,29.76,NW,318,12.7,12.7,57,0.00,CLR,,0.00,WeatherDisplay:10.37,2013-03-23 13:32:00,
2013-03-23 09:37:00,38.8,24.4,29.76,WSW,254,19.6,19.6,56,0.00,CLR,,0.00,WeatherDisplay:10.37,2013-03-23 13:37:00,
2013-03-23 09:42:00,38.8,24.4,29.76,WNW,292,19.0,19.0,56,0.00,CLR,,0.00,WeatherDisplay:10.37,2013-03-23 13:42:00,
2013-03-23 09:48:00,39.1,24.3,29.76,WNW,292,12.7,12.7,55,0.00,CLR,,0.00,WeatherDisplay:10.37,2013-03-23 13:48:00,
2013-03-23 09:53:00,39.2,23.9,29.76,West,275,12.7,12.7,54,0.00,CLR,,0.00,WeatherDisplay:10.37,2013-03-23 13:53:00,
2013-03-23 09:58:00,39.3,24.5,29.76,West,279,11.5,11.5,55,0.00,CLR,,0.00,WeatherDisplay:10.37,2013-03-23 13:58:00,
2013-03-23 10:03:00,39.4,24.1,29.76,WNW,284,16.1,16.1,54,0.00,CLR,,0.00,WeatherDisplay:10.37,2013-03-23 14:03:00,
2013-03-23 10:08:00,39.3,24.0,29.77,WNW,294,15.0,15.0,54,0.00,CLR,,0.00,WeatherDisplay:10.37,2013-03-23 14:08:00,
2013-03-23 10:13:00,39.4,24.1,29.77,NW,304,16.1,16.1,54,0.00,CLR,,0.00,WeatherDisplay:10.37,2013-03-23 14:13:00,
2013-03-23 10:18:00,39.5,24.2,29.77,WNW,295,13.0,13.0,54,0.00,CLR,,0.00,WeatherDisplay:10.37,2013-03-23 14:18:00,
2013-03-23 10:24:00,39.5,23.8,29.77,West,277,16.1,16.1,53,0.00,CLR,,0.00,WeatherDisplay:10.37,2013-03-23 14:24:00,
2013-03-23 10:29:00,39.7,24.0,29.76,WNW,297,8.1,8.1,53,0.00,CLR,,0.00,WeatherDisplay:10.37,2013-03-23 14:29:00,
2013-03-23 10:34:00,40.0,23.8,29.76,NNW,342,12.7,12.7,52,0.00,CLR,,0.00,WeatherDisplay:10.37,2013-03-23 14:34:00,
2013-03-23 10:39:00,40.0,23.8,29.76,West,278,13.8,13.8,52,0.00,CLR,,0.00,WeatherDisplay:10.37,2013-03-23 14:39:00,
2013-03-23 10:44:00,40.6,23.9,29.76,WSW,254,15.0,15.0,51,0.00,CLR,,0.00,WeatherDisplay:10.37,2013-03-23 14:44:00,
2013-03-23 10:49:00,40.7,24.0,29.76,West,274,12.7,12.7,51,0.00,CLR,,0.00,WeatherDisplay:10.37,2013-03-23 14:49:00,
2013-03-23 10:54:00,40.9,24.1,29.75,WNW,292,11.5,11.5,51,0.00,CLR,,0.00,WeatherDisplay:10.37,2013-03-23 14:54:00,
2013-03-23 10:59:00,41.0,23.8,29.75,WNW,294,12.7,12.7,50,0.00,CLR,,0.00,WeatherDisplay:10.37,2013-03-23 14:59:00,
2013-03-23 11:04:00,40.9,24.1,29.75,West,273,13.8,13.8,51,0.00,SCT,,0.00,WeatherDisplay:10.37,2013-03-23 15:04:00,
2013-03-23 11:09:00,41.4,24.1,29.76,WSW,240,12.7,12.7,50,0.00,SCT,,0.00,WeatherDisplay:10.37,2013-03-23 15:09:00,
2013-03-23 11:14:00,41.1,23.4,29.76,West,273,12.7,12.9,49,0.00,SCT,,0.00,WeatherDisplay:10.37,2013-03-23 15:14:00,
2013-03-23 11:20:00,41.1,23.4,29.76,WNW,288,13.8,13.8,49,0.00,SCT,,0.00,WeatherDisplay:10.37,2013-03-23 15:20:00,
2013-03-23 11:25:00,40.7,23.5,29.76,West,274,12.7,12.7,50,0.00,SCT,,0.00,WeatherDisplay:10.37,2013-03-23 15:25:00,
2013-03-23 11:30:00,41.1,22.9,29.76,WSW,248,15.0,15.0,48,0.00,SCT,,0.00,WeatherDisplay:10.37,2013-03-23 15:30:00,
2013-03-23 11:35:00,41.4,23.6,29.75,West,273,20.7,20.7,49,0.00,SCT,,0.00,WeatherDisplay:10.37,2013-03-23 15:35:00,
2013-03-23 11:40:00,41.5,23.7,29.75,West,275,9.2,9.2,49,0.00,SCT,,0.00,WeatherDisplay:10.37,2013-03-23 15:40:00,
2013-03-23 11:45:00,41.1,23.4,29.75,WSW,246,17.3,17.3,49,0.00,SCT,,0.00,WeatherDisplay:10.37,2013-03-23 15:45:00,
2013-03-23 11:50:00,41.2,23.5,29.75,WNW,289,17.3,17.3,49,0.00,SCT,,0.00,WeatherDisplay:10.37,2013-03-23 15:50:00,
2013-03-23 11:55:00,41.7,23.9,29.75,NW,315,11.5,11.5,49,0.00,SCT,,0.00,WeatherDisplay:10.37,2013-03-23 15:55:00,
2013-03-23 12:00:00,42.0,23.7,29.75,WNW,291,15.0,15.0,48,0.00,OVC,,0.00,WeatherDisplay:10.37,2013-03-23 16:00:00,
2013-03-23 12:06:00,41.7,22.9,29.75,WNW,290,13.8,13.8,47,0.00,OVC,,0.00,WeatherDisplay:10.37,2013-03-23 16:06:00,
2013-03-23 12:12:00,41.4,23.2,29.75,West,277,16.1,16.1,48,0.00,OVC,,0.00,WeatherDisplay:10.37,2013-03-23 16:12:00,
2013-03-23 12:17:00,42.2,23.9,29.75,West,280,11.5,11.5,48,0.00,OVC,,0.00,WeatherDisplay:10.37,2013-03-23 16:17:00,
2013-03-23 12:22:00,42.0,23.2,29.75,NW,306,19.6,19.6,47,0.00,OVC,,0.00,WeatherDisplay:10.37,2013-03-23 16:22:00,
2013-03-23 12:27:00,41.7,23.4,29.75,WNW,300,13.8,13.8,48,0.00,OVC,,0.00,WeatherDisplay:10.37,2013-03-23 16:27:00,
2013-03-23 12:32:00,41.7,23.4,29.75,WNW,287,17.3,17.3,48,0.00,OVC,,0.00,WeatherDisplay:10.37,2013-03-23 16:32:00,
2013-03-23 12:38:00,42.0,23.7,29.75,West,272,11.5,11.5,48,0.00,OVC,,0.00,WeatherDisplay:10.37,2013-03-23 16:38:00,
2013-03-23 12:43:00,42.1,23.8,29.75,NW,306,8.0,8.0,48,0.00,OVC,,0.00,WeatherDisplay:10.37,2013-03-23 16:43:00,
2013-03-23 12:48:00,42.4,24.1,29.75,NW,315,18.4,18.4,48,0.00,OVC,,0.00,WeatherDisplay:10.37,2013-03-23 16:48:00,
2013-03-23 12:53:00,42.8,23.9,29.75,WNW,295,19.6,19.6,47,0.00,OVC,,0.00,WeatherDisplay:10.37,2013-03-23 16:53:00,
2013-03-23 12:58:00,42.4,24.1,29.75,WNW,300,15.0,15.0,48,0.00,OVC,,0.00,WeatherDisplay:10.37,2013-03-23 16:58:00,
2013-03-23 13:03:00,43.0,24.1,29.75,NW,311,9.2,9.2,47,0.00,BKN,,0.00,WeatherDisplay:10.37,2013-03-23 17:03:00,
2013-03-23 13:08:00,43.2,23.3,29.75,WNW,302,17.3,17.3,45,0.00,BKN,,0.00,WeatherDisplay:10.37,2013-03-23 17:08:00,
2013-03-23 13:14:00,42.9,24.0,29.75,WNW,302,23.0,23.0,47,0.00,BKN,,0.00,WeatherDisplay:10.37,2013-03-23 17:14:00,
2013-03-23 13:19:00,42.7,22.8,29.75,WNW,284,18.4,18.4,45,0.00,BKN,,0.00,WeatherDisplay:10.37,2013-03-23 17:19:00,
2013-03-23 13:24:00,43.1,22.6,29.74,NW,316,23.0,23.0,44,0.00,BKN,,0.00,WeatherDisplay:10.37,2013-03-23 17:24:00,
2013-03-23 13:29:00,43.3,23.4,29.74,WNW,294,24.0,24.0,45,0.00,BKN,,0.00,WeatherDisplay:10.37,2013-03-23 17:29:00,
2013-03-23 13:34:00,43.2,23.3,29.74,West,267,15.0,15.0,45,0.00,BKN,,0.00,WeatherDisplay:10.37,2013-03-23 17:34:00,
2013-03-23 13:40:00,43.7,23.2,29.74,West,279,19.0,19.0,44,0.00,BKN,,0.00,WeatherDisplay:10.37,2013-03-23 17:40:00,
2013-03-23 13:45:00,43.6,22.0,29.74,West,274,16.0,27.0,42,0.00,BKN,,0.00,WeatherDisplay:10.37,2013-03-23 17:45:00,
2013-03-23 13:50:00,43.2,22.2,29.74,WNW,292,25.3,25.3,43,0.00,BKN,,0.00,WeatherDisplay:10.37,2013-03-23 17:50:00,
2013-03-23 13:55:00,43.7,23.2,29.73,West,262,19.6,19.6,44,0.00,BKN,,0.00,WeatherDisplay:10.37,2013-03-23 17:55:00,
2013-03-23 14:00:00,43.7,20.9,29.74,WNW,294,20.7,20.7,40,0.00,BKN,,0.00,WeatherDisplay:10.37,2013-03-23 18:00:00,
2013-03-23 14:05:00,44.3,22.1,29.73,West,263,12.7,12.7,41,0.00,BKN,,0.00,WeatherDisplay:10.37,2013-03-23 18:05:00,
2013-03-23 14:10:00,44.8,21.3,29.73,WNW,283,19.0,19.0,39,0.00,BKN,,0.00,WeatherDisplay:10.37,2013-03-23 18:10:00,
2013-03-23 14:15:00,44.1,19.5,29.73,WNW,288,27.6,27.6,37,0.00,BKN,,0.00,WeatherDisplay:10.37,2013-03-23 18:15:00,
2013-03-23 14:20:00,44.0,18.7,29.73,WSW,255,24.2,24.2,36,0.00,BKN,,0.00,WeatherDisplay:10.37,2013-03-23 18:20:00,
2013-03-23 14:25:00,44.2,19.5,29.73,West,277,20.7,20.7,37,0.00,BKN,,0.00,WeatherDisplay:10.37,2013-03-23 18:25:00,
2013-03-23 14:31:00,44.8,19.4,29.72,NNW,338,18.4,18.4,36,0.00,BKN,,0.00,WeatherDisplay:10.37,2013-03-23 18:31:00,
2013-03-23 14:36:00,44.7,19.3,29.72,WNW,290,21.9,21.9,36,0.00,BKN,,0.00,WeatherDisplay:10.37,2013-03-23 18:36:00,
2013-03-23 14:41:00,45.1,19.0,29.72,WSW,251,23.0,23.0,35,0.00,BKN,,0.00,WeatherDisplay:10.37,2013-03-23 18:41:00,
2013-03-23 14:46:00,45.1,19.0,29.72,NW,326,19.6,19.6,35,0.00,BKN,,0.00,WeatherDisplay:10.37,2013-03-23 18:46:00,
2013-03-23 14:51:00,45.1,19.0,29.72,WNW,286,19.6,19.6,35,0.00,BKN,,0.00,WeatherDisplay:10.37,2013-03-23 18:51:00,
2013-03-23 14:57:00,45.5,20.1,29.72,NW,313,15.0,15.0,36,0.00,BKN,,0.00,WeatherDisplay:10.37,2013-03-23 18:57:00,
2013-03-23 15:02:00,45.6,19.5,29.71,West,271,19.6,19.6,35,0.00,SCT,,0.00,WeatherDisplay:10.37,2013-03-23 19:02:00,
2013-03-23 15:07:00,45.4,19.3,29.71,NW,325,15.0,15.0,35,0.00,SCT,,0.00,WeatherDisplay:10.37,2013-03-23 19:07:00,
2013-03-23 15:12:00,45.4,18.6,29.71,NW,315,20.7,20.7,34,0.00,SCT,,0.00,WeatherDisplay:10.37,2013-03-23 19:12:00,
2013-03-23 15:18:00,45.2,18.5,29.71,West,259,21.9,21.9,34,0.00,SCT,,0.00,WeatherDisplay:10.37,2013-03-23 19:18:00,
2013-03-23 15:23:00,45.3,19.2,29.71,NW,309,24.2,24.2,35,0.00,SCT,,0.00,WeatherDisplay:10.37,2013-03-23 19:23:00,
2013-03-23 15:28:00,45.9,20.4,29.71,WSW,246,10.4,10.4,36,0.00,SCT,,0.00,WeatherDisplay:10.37,2013-03-23 19:28:00,
2013-03-23 15:33:00,45.3,18.5,29.71,NW,315,18.4,18.4,34,0.00,SCT,,0.00,WeatherDisplay:10.37,2013-03-23 19:33:00,
2013-03-23 15:38:00,45.2,19.1,29.71,West,266,17.0,17.0,35,0.00,SCT,,0.00,WeatherDisplay:10.37,2013-03-23 19:38:00,
2013-03-23 15:43:00,45.2,19.1,29.71,NW,321,20.7,20.7,35,0.00,SCT,,0.00,WeatherDisplay:10.37,2013-03-23 19:43:00,
2013-03-23 15:49:00,45.0,19.0,29.71,WNW,301,18.4,18.4,35,0.00,SCT,,0.00,WeatherDisplay:10.37,2013-03-23 19:49:00,
2013-03-23 15:54:00,45.2,19.1,29.71,NNW,331,15.0,15.0,35,0.00,SCT,,0.00,WeatherDisplay:10.37,2013-03-23 19:54:00,
2013-03-23 15:59:00,45.5,19.4,29.71,NW,313,11.5,11.5,35,0.00,SCT,,0.00,WeatherDisplay:10.37,2013-03-23 19:59:00,
2013-03-23 16:04:00,45.3,18.5,29.71,West,273,18.4,18.4,34,0.00,SCT,,0.00,WeatherDisplay:10.37,2013-03-23 20:04:00,
2013-03-23 16:10:00,45.2,18.5,29.70,WNW,295,19.6,19.6,34,0.00,SCT,,0.00,WeatherDisplay:10.37,2013-03-23 20:10:00,
2013-03-23 16:15:00,45.3,18.6,29.71,WNW,283,12.0,23.0,34,0.00,SCT,,0.00,WeatherDisplay:10.37,2013-03-23 20:15:00,
2013-03-23 16:20:00,45.6,18.8,29.71,West,280,17.3,17.3,34,0.00,SCT,,0.00,WeatherDisplay:10.37,2013-03-23 20:20:00,
2013-03-23 16:25:00,45.3,18.5,29.71,NNW,330,19.6,19.6,34,0.00,SCT,,0.00,WeatherDisplay:10.37,2013-03-23 20:25:00,
2013-03-23 16:30:00,45.6,18.8,29.71,WNW,290,19.6,19.6,34,0.00,SCT,,0.00,WeatherDisplay:10.37,2013-03-23 20:30:00,
2013-03-23 16:35:00,45.7,18.9,29.71,NW,322,23.0,23.0,34,0.00,SCT,,0.00,WeatherDisplay:10.37,2013-03-23 20:35:00,
2013-03-23 16:40:00,45.5,18.7,29.71,West,281,19.0,19.0,34,0.00,SCT,,0.00,WeatherDisplay:10.37,2013-03-23 20:40:00,
2013-03-23 16:45:00,45.4,18.6,29.72,NW,313,18.4,18.4,34,0.00,SCT,,0.00,WeatherDisplay:10.37,2013-03-23 20:45:00,
2013-03-23 16:50:00,45.0,19.6,29.71,NW,323,23.0,23.0,36,0.00,SCT,,0.00,WeatherDisplay:10.37,2013-03-23 20:50:00,
2013-03-23 16:55:00,44.8,19.4,29.72,NW,324,24.2,24.2,36,0.00,SCT,,0.00,WeatherDisplay:10.37,2013-03-23 20:55:00,
2013-03-23 17:00:00,44.6,19.3,29.72,NNW,329,28.8,28.8,36,0.00,SCT,,0.00,WeatherDisplay:10.37,2013-03-23 21:00:00,
2013-03-23 17:05:00,44.8,18.8,29.72,West,280,17.0,17.0,35,0.00,SCT,,0.00,WeatherDisplay:10.37,2013-03-23 21:05:00,
2013-03-23 17:11:00,45.0,19.0,29.72,WNW,283,21.9,21.9,35,0.00,SCT,,0.00,WeatherDisplay:10.37,2013-03-23 21:11:00,
2013-03-23 17:16:00,44.9,19.5,29.72,WNW,294,19.6,19.6,36,0.00,SCT,,0.00,WeatherDisplay:10.37,2013-03-23 21:16:00,
2013-03-23 17:21:00,44.9,19.5,29.73,NNW,338,15.0,15.0,36,0.00,SCT,,0.00,WeatherDisplay:10.37,2013-03-23 21:21:00,
2013-03-23 17:26:00,44.7,18.7,29.73,WNW,302,20.7,20.7,35,0.00,SCT,,0.00,WeatherDisplay:10.37,2013-03-23 21:26:00,
2013-03-23 17:32:00,44.3,19.6,29.73,NW,325,20.0,20.0,37,0.00,SCT,,0.00,WeatherDisplay:10.37,2013-03-23 21:32:00,
2013-03-23 17:37:00,44.2,19.5,29.73,WNW,290,21.9,21.9,37,0.00,SCT,,0.00,WeatherDisplay:10.37,2013-03-23 21:37:00,
2013-03-23 17:42:00,44.1,18.8,29.73,NW,313,19.6,19.6,36,0.00,SCT,,0.00,WeatherDisplay:10.37,2013-03-23 21:42:00,
2013-03-23 17:47:00,44.0,19.4,29.74,NW,310,26.5,26.5,37,0.00,SCT,,0.00,WeatherDisplay:10.37,2013-03-23 21:47:00,
2013-03-23 17:52:00,44.0,20.0,29.74,WNW,292,15.0,15.0,38,0.00,SCT,,0.00,WeatherDisplay:10.37,2013-03-23 21:52:00,
2013-03-23 17:57:00,44.1,20.1,29.74,WNW,295,13.8,13.8,38,0.00,SCT,,0.00,WeatherDisplay:10.37,2013-03-23 21:57:00,
2013-03-23 18:03:00,44.3,19.6,29.74,NNW,339,8.1,8.1,37,0.00,SCT,,0.00,WeatherDisplay:10.37,2013-03-23 22:03:00,
2013-03-23 18:08:00,44.1,19.5,29.74,NW,311,18.4,18.4,37,0.00,SCT,,0.00,WeatherDisplay:10.37,2013-03-23 22:08:00,
2013-03-23 18:13:00,43.9,19.3,29.75,NW,311,19.6,19.6,37,0.00,SCT,,0.00,WeatherDisplay:10.37,2013-03-23 22:13:00,
2013-03-23 18:18:00,43.8,19.8,29.75,NW,325,17.3,17.3,38,0.00,SCT,,0.00,WeatherDisplay:10.37,2013-03-23 22:18:00,
2013-03-23 18:23:00,43.7,19.7,29.75,WNW,302,18.4,18.4,38,0.00,SCT,,0.00,WeatherDisplay:10.37,2013-03-23 22:23:00,
2013-03-23 18:28:00,43.5,19.5,29.75,NW,320,19.6,19.6,38,0.00,SCT,,0.00,WeatherDisplay:10.37,2013-03-23 22:28:00,
2013-03-23 18:33:00,43.4,20.1,29.75,West,269,11.5,11.5,39,0.00,SCT,,0.00,WeatherDisplay:10.37,2013-03-23 22:33:00,
2013-03-23 18:38:00,43.3,19.4,29.76,NW,313,21.9,21.9,38,0.00,SCT,,0.00,WeatherDisplay:10.37,2013-03-23 22:38:00,
2013-03-23 18:44:00,43.3,19.4,29.76,West,270,15.0,15.0,38,0.00,SCT,,0.00,WeatherDisplay:10.37,2013-03-23 22:44:00,
2013-03-23 18:49:00,43.3,20.0,29.76,West,273,18.4,18.4,39,0.00,SCT,,0.00,WeatherDisplay:10.37,2013-03-23 22:49:00,
2013-03-23 18:54:00,43.2,19.9,29.77,NW,321,17.3,17.3,39,0.00,SCT,,0.00,WeatherDisplay:10.37,2013-03-23 22:54:00,
2013-03-23 18:59:00,43.1,19.8,29.76,NW,309,12.7,12.7,39,0.00,SCT,,0.00,WeatherDisplay:10.37,2013-03-23 22:59:00,
2013-03-23 19:04:00,42.9,19.6,29.77,NW,305,11.5,11.5,39,0.00,SCT,,0.00,WeatherDisplay:10.37,2013-03-23 23:04:00,
2013-03-23 19:10:00,42.8,20.1,29.77,WNW,291,10.4,10.4,40,0.00,SCT,,0.00,WeatherDisplay:10.37,2013-03-23 23:10:00,
2013-03-23 19:15:00,42.7,20.0,29.77,WNW,300,7.0,18.0,40,0.00,SCT,,0.00,WeatherDisplay:10.37,2013-03-23 23:15:00,
2013-03-23 19:20:00,42.6,20.5,29.77,WNW,300,9.2,9.2,41,0.00,SCT,,0.00,WeatherDisplay:10.37,2013-03-23 23:20:00,
2013-03-23 19:25:00,42.4,19.8,29.78,NW,304,15.0,15.0,40,0.00,SCT,,0.00,WeatherDisplay:10.37,2013-03-23 23:25:00,
2013-03-23 19:30:00,42.4,19.8,29.78,NNW,328,15.0,15.0,40,0.00,SCT,,0.00,WeatherDisplay:10.37,2013-03-23 23:30:00,
2013-03-23 19:35:00,42.4,19.8,29.78,WNW,298,21.9,21.9,40,0.00,SCT,,0.00,WeatherDisplay:10.37,2013-03-23 23:35:00,
2013-03-23 19:41:00,42.3,20.2,29.79,West,275,16.1,16.1,41,0.00,SCT,,0.00,WeatherDisplay:10.37,2013-03-23 23:41:00,
2013-03-23 19:46:00,42.1,20.1,29.79,WNW,300,15.0,15.0,41,0.00,SCT,,0.00,WeatherDisplay:10.37,2013-03-23 23:46:00,
2013-03-23 19:51:00,42.0,20.0,29.79,NNW,329,14.0,14.0,41,0.00,SCT,,0.00,WeatherDisplay:10.37,2013-03-23 23:51:00,
2013-03-23 19:56:00,41.9,19.3,29.79,WNW,290,12.7,12.7,40,0.00,SCT,,0.00,WeatherDisplay:10.37,2013-03-23 23:56:00,
2013-03-23 20:02:00,41.8,19.8,29.80,NW,319,9.2,9.2,41,0.00,CLR,,0.00,WeatherDisplay:10.37,2013-03-24 00:02:00,
2013-03-23 20:07:00,41.6,20.7,29.80,NW,309,16.1,16.1,43,0.00,CLR,,0.00,WeatherDisplay:10.37,2013-03-24 00:07:00,
2013-03-23 20:12:00,41.5,20.6,29.80,NW,321,10.4,10.4,43,0.00,CLR,,0.00,WeatherDisplay:10.37,2013-03-24 00:12:00,
2013-03-23 20:17:00,41.3,21.0,29.81,WNW,285,11.5,11.5,44,0.00,CLR,,0.00,WeatherDisplay:10.37,2013-03-24 00:17:00,
2013-03-23 20:22:00,41.1,20.3,29.81,WNW,300,17.3,17.3,43,0.00,CLR,,0.00,WeatherDisplay:10.37,2013-03-24 00:22:00,
2013-03-23 20:27:00,41.0,20.7,29.81,WNW,294,10.4,10.4,44,0.00,CLR,,0.00,WeatherDisplay:10.37,2013-03-24 00:27:00,
2013-03-23 20:33:00,40.9,20.6,29.81,WNW,294,13.8,13.8,44,0.00,CLR,,0.00,WeatherDisplay:10.37,2013-03-24 00:33:00,
2013-03-23 20:38:00,40.9,20.6,29.81,WNW,292,13.8,13.8,44,0.00,CLR,,0.00,WeatherDisplay:10.37,2013-03-24 00:38:00,
2013-03-23 20:43:00,40.8,20.5,29.82,NW,322,13.8,13.8,44,0.00,CLR,,0.00,WeatherDisplay:10.37,2013-03-24 00:43:00,
2013-03-23 20:48:00,40.6,20.9,29.82,West,273,16.1,16.1,45,0.00,CLR,,0.00,WeatherDisplay:10.37,2013-03-24 00:48:00,
2013-03-23 20:53:00,40.5,20.8,29.83,West,280,12.7,12.7,45,0.00,CLR,,0.00,WeatherDisplay:10.37,2013-03-24 00:53:00,
2013-03-23 20:58:00,40.3,20.6,29.83,West,278,16.1,16.1,45,0.00,CLR,,0.00,WeatherDisplay:10.37,2013-03-24 00:58:00,
2013-03-23 21:03:00,40.2,20.5,29.83,NW,311,18.4,18.4,45,0.00,CLR,,0.00,WeatherDisplay:10.37,2013-03-24 01:03:00,
2013-03-23 21:08:00,40.0,20.3,29.84,West,277,17.3,17.3,45,0.00,CLR,,0.00,WeatherDisplay:10.37,2013-03-24 01:08:00,
2013-03-23 21:13:00,39.8,19.6,29.84,NW,315,19.6,19.6,44,0.00,CLR,,0.00,WeatherDisplay:10.37,2013-03-24 01:13:00,
2013-03-23 21:19:00,39.6,19.5,29.85,West,274,19.6,19.6,44,0.00,CLR,,0.00,WeatherDisplay:10.37,2013-03-24 01:19:00,
2013-03-23 21:24:00,39.5,19.4,29.85,WNW,288,18.4,18.4,44,0.00,CLR,,0.00,WeatherDisplay:10.37,2013-03-24 01:24:00,
2013-03-23 21:29:00,39.4,19.3,29.85,NNW,331,16.1,16.1,44,0.00,CLR,,0.00,WeatherDisplay:10.37,2013-03-24 01:29:00,
2013-03-23 21:34:00,39.3,19.7,29.85,West,276,12.7,12.7,45,0.00,CLR,,0.00,WeatherDisplay:10.37,2013-03-24 01:34:00,
2013-03-23 21:39:00,39.1,19.5,29.85,NW,325,12.7,12.7,45,0.00,CLR,,0.00,WeatherDisplay:10.37,2013-03-24 01:39:00,
2013-03-23 21:44:00,39.1,19.5,29.85,WNW,291,10.4,10.4,45,0.00,CLR,,0.00,WeatherDisplay:10.37,2013-03-24 01:44:00,
2013-03-23 21:49:00,38.9,19.9,29.84,West,281,20.7,20.7,46,0.00,CLR,,0.00,WeatherDisplay:10.37,2013-03-24 01:49:00,
2013-03-23 21:55:00,38.8,19.8,29.84,WNW,288,12.7,12.7,46,0.00,CLR,,0.00,WeatherDisplay:10.37,2013-03-24 01:55:00,
2013-03-23 22:00:00,38.8,19.8,29.84,WNW,285,18.4,18.4,46,0.00,CLR,,0.00,WeatherDisplay:10.37,2013-03-24 02:00:00,
2013-03-23 22:05:00,38.7,20.2,29.84,NW,304,20.7,20.7,47,0.00,SCT,,0.00,WeatherDisplay:10.37,2013-03-24 02:05:00,
2013-03-23 22:10:00,38.7,20.2,29.84,West,279,16.1,16.1,47,0.00,SCT,,0.00,WeatherDisplay:10.37,2013-03-24 02:10:00,
2013-03-23 22:15:00,38.7,20.2,29.84,NW,317,15.0,15.0,47,0.00,SCT,,0.00,WeatherDisplay:10.37,2013-03-24 02:15:00,
2013-03-23 22:20:00,38.7,20.2,29.85,WNW,301,23.0,23.0,47,0.00,SCT,,0.00,WeatherDisplay:10.37,2013-03-24 02:20:00,
2013-03-23 22:25:00,38.7,20.7,29.85,WNW,289,10.4,10.4,48,0.00,SCT,,0.00,WeatherDisplay:10.37,2013-03-24 02:25:00,
2013-03-23 22:30:00,38.6,20.1,29.85,NNW,327,16.1,16.1,47,0.00,SCT,,0.00,WeatherDisplay:10.37,2013-03-24 02:30:00,
2013-03-23 22:35:00,38.5,20.5,29.85,NNW,335,11.5,11.5,48,0.00,SCT,,0.00,WeatherDisplay:10.37,2013-03-24 02:35:00,
2013-03-23 22:41:00,38.4,20.4,29.86,WNW,303,10.4,10.4,48,0.00,SCT,,0.00,WeatherDisplay:10.37,2013-03-24 02:41:00,
2013-03-23 22:46:00,38.3,20.8,29.86,West,280,18.4,18.4,49,0.00,SCT,,0.00,WeatherDisplay:10.37,2013-03-24 02:46:00,
2013-03-23 22:52:00,38.2,21.2,29.86,NW,316,12.7,12.7,50,0.00,SCT,,0.00,WeatherDisplay:10.37,2013-03-24 02:52:00,
2013-03-23 22:57:00,38.1,21.1,29.86,West,274,15.0,15.0,50,0.00,SCT,,0.00,WeatherDisplay:10.37,2013-03-24 02:57:00,
2013-03-23 23:02:00,38.0,21.0,29.86,NW,320,11.5,11.5,50,0.00,CLR,,0.00,WeatherDisplay:10.37,2013-03-24 03:02:00,
2013-03-23 23:07:00,37.9,21.4,29.85,West,277,12.7,12.7,51,0.00,CLR,,0.00,WeatherDisplay:10.37,2013-03-24 03:07:00,
2013-03-23 23:12:00,37.8,21.3,29.86,WNW,292,8.1,8.1,51,0.00,CLR,,0.00,WeatherDisplay:10.37,2013-03-24 03:12:00,
2013-03-23 23:17:00,37.8,21.3,29.86,West,279,4.6,4.6,51,0.00,CLR,,0.00,WeatherDisplay:10.37,2013-03-24 03:17:00,
2013-03-23 23:22:00,37.7,21.2,29.86,NW,316,10.4,10.4,51,0.00,CLR,,0.00,WeatherDisplay:10.37,2013-03-24 03:22:00,
2013-03-23 23:28:00,37.6,21.1,29.86,WNW,298,4.0,4.0,51,0.00,CLR,,0.00,WeatherDisplay:10.37,2013-03-24 03:28:00,
2013-03-23 23:33:00,37.5,21.0,29.86,NNE,19,7.0,7.0,51,0.00,CLR,,0.00,WeatherDisplay:10.37,2013-03-24 03:33:00,
2013-03-23 23:38:00,37.5,21.0,29.86,West,278,11.5,11.5,51,0.00,CLR,,0.00,WeatherDisplay:10.37,2013-03-24 03:38:00,
2013-03-23 23:43:00,37.5,20.5,29.86,West,276,11.5,11.5,50,0.00,CLR,,0.00,WeatherDisplay:10.37,2013-03-24 03:43:00,
2013-03-23 23:48:00,37.4,20.9,29.85,NW,308,11.5,11.5,51,0.00,CLR,,0.00,WeatherDisplay:10.37,2013-03-24 03:48:00,
2013-03-23 23:53:00,37.3,20.8,29.86,West,273,6.9,6.9,51,0.00,CLR,,0.00,WeatherDisplay:10.37,2013-03-24 03:53:00,
2013-03-23 23:59:00,37.2,20.7,29.86,WNW,300,3.0,3.0,51,0.00,CLR,,0.00,WeatherDisplay:10.37,2013-03-24 03:59:00,